Simultaneous Nadir Overpasses (SNOs) Predictions

Prediction of SNOs between AQUA and METOP-A Satellite Orbit:

Table of predicted SNOs for the next 14.0 days since TLE Epoch: 6/20/2014
Index Date (AQUA) Time (AQUA) Lat,Lon (AQUA) SZA (AQUA ) Date (METOP-A) Time (METOP-A) Lat,Lon (METOP-A) SZA (METOP-A ) Distance(km) Time Diff (sec)
1 06/22/2014 09:20:13 -73.15,-144.36 130.30 06/22/2014 09:19:07 -73.12,-147.21 130.22 92.05 66
2 06/22/2014 10:09:54 73.86, 21.80 50.44 06/22/2014 10:09:32 73.87, 21.85 50.46 2.34 22
3 06/22/2014 10:59:21 -73.94,-170.74 129.47 06/22/2014 11:00:12 -73.95,-170.64 129.47 3.34 51
4 06/25/2014 04:54:35 -73.66, -78.96 129.72 06/25/2014 04:53:23 -73.62, -79.67 129.72 22.79 72
5 06/25/2014 05:44:06 73.84, 88.28 50.48 06/25/2014 05:43:58 73.87, 88.25 50.51 3.29 8
6 06/25/2014 06:33:33 -73.92,-104.25 129.44 06/25/2014 06:34:39 -73.90,-104.35 129.46 3.46 66
7 06/28/2014 00:28:50 -73.81, -12.84 129.45 06/28/2014 00:27:45 -73.82, -12.81 129.43 1.51 65
8 06/28/2014 01:18:18 73.84, 154.72 50.59 06/28/2014 01:18:24 73.86, 154.63 50.61 3.61 6
9 06/28/2014 02:07:49 -74.12, -38.26 129.11 06/28/2014 02:09:00 -74.15, -37.34 129.13 28.05 71
10 06/30/2014 20:03:01 -73.82, 53.58 129.28 06/30/2014 20:02:10 -73.81, 53.58 129.28 0.90 51
11 06/30/2014 20:52:30 73.91,-138.98 50.82 06/30/2014 20:52:48 73.90,-138.88 50.81 3.55 18
12 06/30/2014 21:42:10 -74.64, 26.94 128.38 06/30/2014 21:43:15 -74.63, 30.31 128.53 99.37 65
13 07/03/2014 15:37:13 -73.85, 119.97 129.04 07/03/2014 15:36:35 -73.85, 120.08 129.03 3.44 38
14 07/03/2014 16:26:41 73.89, -72.49 51.02 07/03/2014 16:27:14 73.88, -72.51 51.00 1.38 33




NCC Satellite Simultaneous Nadir Overpasses (SNOs) Prediction Service
